Rayong, Thailand

9:32 AM ICT on February 14, 2016 (GMT +0700)
U-Taphao International

Weather History for VTBU - February, 2014

Change the Weather History Date:

Tuesday, February 18, 2014

  Actual Average Record
Temperature  
Mean Temperature 81 °F -  
Max Temperature 85 °F 87 °F 91 °F (1998)
Min Temperature 77 °F 75 °F 71 °F (2001)
Cooling Degree Days 16    
Growing Degree Days 31 (Base 50)    
Moisture  
Dew Point 72 °F    
Average Humidity 73    
Maximum Humidity 83    
Minimum Humidity 55    
Precipitation  
Precipitation 0.00 in - - ()
Sea Level Pressure  
Sea Level Pressure 29.90 in    
Wind  
Wind Speed 6 mph ()    
Max Wind Speed 12 mph    
Max Gust Speed -    
Visibility 3.7 miles    
Events      
Averages and records for this station are not official NWS values.
T = Trace of Precipitation, MM = Missing Value Source: Averaged Metar Reports

Daily Weather History Graph

Daily Weather History Graph

Search for Another Location

Airport or City:

Trip Planner

Search our weather history database for the weather conditions in past years. The results will help you decide how hot, cold, wet, or windy it might be!

Date:

Astronomy

Feb. 18, 2014 Rise Set
Actual Time 6:35 AM ICT 6:21 PM ICT
Civil Twilight 6:14 AM ICT 6:43 PM ICT
Nautical Twilight 5:49 AM ICT 7:08 PM ICT
Astronomical Twilight 5:24 AM ICT 7:32 PM ICT
Moon 9:00 PM ICT (2/18) 8:28 AM ICT (2/18)
Length of Visible Light 12h 28m
Length of Day
11h 45m
Waning Gibbous, 90% of the Moon is Illuminated
Feb 18
Waning Gibbous
Feb 23
Last Quarter
Mar 1
New
Mar 8
First Quarter
Mar 17
Full

Hourly Weather History & Observations

Time (ICT) Temp. Heat Index Dew Point Humidity Pressure Visibility Wind Dir Wind Speed Gust Speed Precip Events Conditions
12:00 AM 78.8 °F - 73.4 °F 83% 29.92 in 3.7 mi SW 4.6 mph - N/A   Scattered Clouds
12:30 AM 78.8 °F - 73.4 °F 83% 29.92 in 3.7 mi SSW 4.6 mph - N/A   Scattered Clouds
1:00 AM 80 °F - 74 °F 77% 29.93 in 5 mi South 6.9 mph - -   Mist
1:00 AM 78.8 °F - 73.4 °F 83% 29.92 in 3.7 mi WSW 6.9 mph - N/A   Scattered Clouds
2:00 AM 78.8 °F - 73.4 °F 83% 29.89 in 3.7 mi SW 6.9 mph - N/A   Mostly Cloudy
2:30 AM 78.8 °F - 73.4 °F 83% 29.89 in 3.7 mi SW 4.6 mph - N/A   Mostly Cloudy
3:00 AM 78.8 °F - 73.4 °F 83% 29.89 in 3.7 mi SW 6.9 mph - N/A   Mostly Cloudy
3:30 AM 78.8 °F - 71.6 °F 78% 29.89 in 3.7 mi SW 6.9 mph - N/A   Mostly Cloudy
4:00 AM 81 °F - 73 °F 71% 29.88 in 5 mi South 9.2 mph - -   Mist
4:00 AM 78.8 °F - 73.4 °F 83% 29.89 in 3.7 mi WSW 6.9 mph - N/A   Mostly Cloudy
4:30 AM 78.8 °F - 71.6 °F 78% 29.89 in 3.7 mi SW 6.9 mph - N/A   Mostly Cloudy
5:30 AM 78.8 °F - 71.6 °F 78% 29.89 in 3.7 mi SW 6.9 mph - N/A   Mostly Cloudy
6:00 AM 78.8 °F - 71.6 °F 78% 29.89 in 3.7 mi SW 4.6 mph - N/A   Mostly Cloudy
6:30 AM 78.8 °F - 71.6 °F 78% 29.92 in 3.7 mi SW 6.9 mph - N/A   Mostly Cloudy
7:00 AM 80 °F - 73 °F 73% 29.92 in 5 mi SSE 5.8 mph - -   Mist
7:00 AM 78.8 °F - 71.6 °F 78% 29.92 in 3.1 mi SW 6.9 mph - N/A   Mostly Cloudy
7:30 AM 80.6 °F 84.6 °F 71.6 °F 74% 29.95 in 3.1 mi SW 6.9 mph - N/A   Mostly Cloudy
8:00 AM 80.6 °F 84.6 °F 71.6 °F 74% 29.95 in 3.1 mi WSW 9.2 mph - N/A   Mostly Cloudy
8:30 AM 82.4 °F 87.2 °F 71.6 °F 70% 29.95 in 3.7 mi WSW 9.2 mph - N/A   Mostly Cloudy
9:00 AM 82.4 °F 87.2 °F 71.6 °F 70% 29.95 in 3.7 mi SW 9.2 mph - N/A   Mostly Cloudy
9:30 AM 84.2 °F 89.6 °F 71.6 °F 66% 29.98 in 4.3 mi SW 9.2 mph - N/A   Mostly Cloudy
10:00 AM 83 °F - 73 °F 64% 29.98 in 5 mi SSE 5.8 mph - -   Mist
10:00 AM 86.0 °F 93.4 °F 73.4 °F 66% 29.98 in 4.3 mi SW 6.9 mph - N/A   Mostly Cloudy
10:30 AM 86.0 °F 93.4 °F 73.4 °F 66% 29.98 in 4.3 mi SW 9.2 mph - N/A   Mostly Cloudy
11:00 AM 87.8 °F 93.8 °F 71.6 °F 58% 29.98 in 4.3 mi SW 9.2 mph - N/A   Mostly Cloudy
12:00 PM 87.8 °F 95.6 °F 73.4 °F 62% 29.95 in 4.3 mi WSW 9.2 mph - N/A   Mostly Cloudy
12:30 PM 86.0 °F 91.8 °F 71.6 °F 62% 29.92 in 4.3 mi West 9.2 mph - N/A   Mostly Cloudy
1:00 PM 85 °F - 74 °F 62% 29.94 in 5 mi SSW 8.1 mph - -   Mist
1:00 PM 86.0 °F 90.4 °F 69.8 °F 58% 29.92 in 4.3 mi WSW 11.5 mph - N/A   Mostly Cloudy
1:30 PM 89.6 °F 96.2 °F 71.6 °F 55% 29.89 in 4.3 mi SW 11.5 mph - N/A   Mostly Cloudy
2:00 PM 87.8 °F 93.8 °F 71.6 °F 58% 29.89 in 4.3 mi SW 9.2 mph - N/A   Mostly Cloudy
2:30 PM 87.8 °F 93.8 °F 71.6 °F 58% 29.86 in 4.3 mi SW 9.2 mph - N/A   Mostly Cloudy
3:00 PM 87.8 °F 93.8 °F 71.6 °F 58% 29.86 in 3.7 mi SW 11.5 mph - N/A   Mostly Cloudy
3:30 PM 86.0 °F 91.8 °F 71.6 °F 62% 29.86 in 3.7 mi SW 9.2 mph - N/A   Mostly Cloudy
4:00 PM 84 °F - 74 °F 65% 29.85 in 5 mi South 9.2 mph - -   Mist
4:00 PM 86.0 °F 93.4 °F 73.4 °F 66% 29.83 in 3.7 mi South 11.5 mph - N/A   Mostly Cloudy
4:30 PM 84.2 °F 90.9 °F 73.4 °F 70% 29.83 in 3.7 mi SW 11.5 mph - N/A   Mostly Cloudy
5:00 PM 84.2 °F 90.9 °F 73.4 °F 70% 29.83 in 3.7 mi South 11.5 mph - N/A   Mostly Cloudy
5:30 PM 82.4 °F 88.2 °F 73.4 °F 74% 29.83 in 3.7 mi SW 8.1 mph - N/A   Mostly Cloudy
6:00 PM 82.4 °F 88.2 °F 73.4 °F 74% 29.86 in 3.1 mi SSW 8.1 mph - N/A   Scattered Clouds
6:30 PM 80.6 °F 84.6 °F 71.6 °F 74% 29.86 in 2.5 mi South 4.6 mph - N/A   Mostly Cloudy
7:00 PM 81 °F - 74 °F 73% 29.86 in 5 mi South 6.9 mph - -   Mist
7:00 PM 80.6 °F 84.6 °F 71.6 °F 74% 29.86 in 2.5 mi South 4.6 mph - N/A   Scattered Clouds
7:30 PM 78.8 °F - 71.6 °F 78% 29.86 in 2.5 mi SSW 5.8 mph - N/A   Scattered Clouds
8:00 PM 78.8 °F - 71.6 °F 78% 29.86 in 2.5 mi South 3.5 mph - N/A   Scattered Clouds
8:30 PM 78.8 °F - 71.6 °F 78% 29.89 in 2.5 mi South 3.5 mph - N/A   Scattered Clouds
9:00 PM 78.8 °F - 71.6 °F 78% 29.89 in 2.5 mi South 5.8 mph - N/A   Scattered Clouds
9:30 PM 78.8 °F - 73.4 °F 83% 29.89 in 2.5 mi South 4.6 mph - N/A   Scattered Clouds
10:00 PM 81 °F - 74 °F 75% 29.89 in 5 mi South 5.8 mph - -   Mist
10:00 PM 78.8 °F - 71.6 °F 78% 29.89 in 2.5 mi South 5.8 mph - N/A   Scattered Clouds
10:30 PM 77.0 °F - 71.6 °F 83% 29.89 in 2.5 mi SSW 3.5 mph - N/A   Scattered Clouds
11:00 PM 78.8 °F - 73.4 °F 83% 29.89 in 2.5 mi SW 3.5 mph - N/A   Scattered Clouds
11:30 PM 78.8 °F - 73.4 °F 83% 29.89 in 2.5 mi SSW 3.5 mph - N/A   Scattered Clouds